Regional Weather Roundup
Issued by NWS

Home | Current Version | Previous Version | Graphics & Text | Print | Product List | Glossary On
Versions: 1 2 3 4 5 6 7 8 9 10 11 12 13 14 15 16 17 18 19 20 21 22 23 24 25 26 27 28 29 30 31 32 33 34 35 36 37 38 39 40 41 42 43 44 45 46 47 48 49 50
000
ASUS43 KFSD 130402
RWRSD

WEATHER ROUNDUP FOR SOUTH DAKOTA
NATIONAL WEATHER SERVICE SIOUX FALLS SD
1100 PM CDT SAT JUL 12 2014

NOTE: "FAIR" INDICATES FEW OR NO CLOUDS BELOW 12,000 FEET WITH NO
SIGNIFICANT WEATHER AND/OR OBSTRUCTIONS TO VISIBILITY.


SDZ001>005-009-010-012>017-130500-
NORTHWEST AND NORTH CENTRAL SOUTH DAKOTA

CITY           SKY/WX    TMP DP  RH WIND       PRES   REMARKS
BUFFALO          N/A     66  52  60 NW10      30.12R
FAITH            N/A     69  60  73 W5        30.13R
MOBRIDGE       PTCLDY    65  63  93 N5        30.04R
$$

SDZ012>016-024>037-041>051-057-063-072>074-130500-
SOUTHWEST AND SOUTH CENTRAL SOUTH DAKOTA

CITY           SKY/WX    TMP DP  RH WIND       PRES   REMARKS
RAPID CTY ARPT PTCLDY    66  63  90 NW6       30.19R
PIERRE         CLEAR     71  62  73 SW6       30.06R
CUSTER         CLEAR     60  58  92 NW5       30.35R
PHILIP         CLEAR     69  61  75 W5        30.12R
PINE RIDGE     CLEAR     65  64  97 CALM      30.21R
WINNER         FAIR      72  62  71 S3        30.10R
$$

SDZ004>011-016>023-039-040-130500-
NORTHEAST SOUTH DAKOTA

CITY           SKY/WX    TMP DP  RH WIND       PRES   REMARKS
ABERDEEN       PTCLDY    67  63  87 W5        30.01R
WATERTOWN      MOCLDY    68  64  87 W6        30.02R
SISSETON         N/A     70  63  78 W7        29.95S
$$

SDZ017-020-022-023-036>040-048>070-130500-
SOUTHEAST SOUTH DAKOTA

CITY           SKY/WX    TMP DP  RH WIND       PRES   REMARKS
SIOUX FALLS    PTCLDY    71  65  81 CALM      30.02F
HURON          CLEAR     71  65  81 W6        30.02R
CHAMBERLAIN    CLEAR     67  63  87 CALM      30.07S
MITCHELL       CLEAR     72  66  81 SW5       30.03S
YANKTON        CLEAR     70  64  83 NW6       30.05R
$$

ABBREVIATIONS USED IN REMARKS
   TC - TEMPERATURE IN CELSIUS
  WCI - WIND CHILL INDEX
   HX - HEAT INDEX
  VSB - VISIBILITY




USA.gov is the U.S. government's official web portal to all federal, state and local government web resources and services.